Tracking 19795 objects as of 19-Jul-2019
HD Live streaming from Space Station
objects crossing your sky now

COSMOS 1275 DEB

Track COSMOS 1275 DEB now!
10-day predictions


NORAD ID: 12759
Int'l Code: 1981-053DC
Perigee: 863.0 km
Apogee: 936.8 km
Inclination: 82.9 °
Period: 102.8 minutes
Semi major axis: 7270 km
RCS: 0.0125 m2 (small)
Launch date: June 4, 1981
Source: Commonwealth of Independent States (former USSR) (CIS)
Launch site: PLESETSK MISSILE AND SPACE COMPLEX (PKMTR)

Note: This is SATELLITE DEBRIS
aabbcc
Your satellite tracking list
Your tracking list is empty




NASA's NSSDC Master Catalog

Two Line Element Set (TLE):
1 12759U 81053DC  19200.09773899  .00000112  00000-0  63993-4 0  9993
2 12759  82.8607 233.5914 0050805  51.2508   9.1560 14.00297225928713
Source of the keplerian elements: AFSPC